Hourly Data Report for June 13, 2020

TRENTON A
ONTARIO
Current Station Operator: DND

44°07'00.000" N
77°32'00.000" W
86.30 m
6158875
71621
YTR

Download Data

Hourly Data (June 2020)
Hourly Data Report for June 13, 2020
TIME
LST
Temp Definition
°C
Dew Point Definition
°C
Rel Hum Definition
%
Precip. Amount Definition
mm

Wind Dir Definition
10's deg

Wind Spd Definition
km/h
Visibility Definition
km
Stn Press Definition
kPa
Hmdx Definition


Wind Chill Definition


Weather Definition


00:00 8.5 3.4 70   36 13 24.1 101.40     Mainly Clear
01:00 7.9 3.2 72   35 4 24.1 101.43     Clear
02:00 6.4 3.7 83     0 24.1 101.40     Mainly Clear
03:00 5.6 3.7 88     0 24.1 101.41     Mainly Clear
04:00 5.2 3.9 91   31 4 24.1 101.41     Mainly Clear
05:00 6.7 4.9 88   28 5 24.1 101.47     Mostly Cloudy
06:00 8.2 3.4 72   36 15 24.1 101.52     Cloudy
07:00 9.1 3.6 68   1 5 24.1 101.57     Mostly Cloudy
08:00 9.7 2.8 62   1 18 24.1 101.62     Mostly Cloudy
09:00 10.5 2.8 59   1 15 24.1 101.64     Mostly Cloudy
10:00 12.6 4.3 57   5 9 24.1 101.65     Mainly Clear
11:00 13.4 3.9 53     0 24.1 101.67     Mainly Clear
12:00 14.4 1.3 41   5 8 24.1 101.65     Mainly Clear
13:00 14.8 0.8 39   20 8 24.1 101.64     Mainly Clear
14:00 14.3 2.2 44   21 18 24.1 101.63     Mainly Clear
15:00 14.2 2.4 45   21 22 24.1 101.63     Mainly Clear
16:00 13.9 2.4 46   21 18 24.1 101.63     Clear
17:00 13.8 2.0 45   24 17 24.1 101.63     Clear
18:00 13.6 5.5 58   21 13 24.1 101.69     Clear
19:00 12.6 5.1 60   21 11 24.1 101.75     Mainly Clear
20:00 11.8 6.3 69   21 8 24.1 101.80     Mainly Clear
21:00 10.4 6.2 75   36 4 24.1 101.87     Mostly Cloudy
22:00 9.4 6.1 80   1 4 24.1 101.87     Mainly Clear
23:00 7.3 5.9 91   3 4 24.1 101.89     Clear

Notes on Data Quality.

Legend

  • E = Estimated
  • M = Missing
  • NA = Not Available*
  • [empty] = Indicates an unobserved value
Date modified: